This is the latest recevied weather packets stored in our database for station/object KF0FSA. If no packets are shown the sender has not sent any weather packets the latest 10 day(s).
| Time | Temp. | Humidity | Pressure | Rain* | Wind** | Luminosity | Snow |
|---|---|---|---|---|---|---|---|
| 1778183589 | 17.78° C | 26% | 956.7 hPa | 0 mm | - | 840 W/m² | - |
| 1778183290 | 17.78° C | 27% | 956.7 hPa | 0 mm | - | 848 W/m² | - |
| 1778182989 | 18.33° C | 26% | 956.7 hPa | 0 mm | - | 850 W/m² | - |
| 1778182690 | 18.33° C | 29% | 956.7 hPa | 0 mm | - | 856 W/m² | - |
| 1778182389 | 17.78° C | 28% | 956.7 hPa | 0 mm | - | 863 W/m² | - |
| 1778182174 | 17.78° C | 26% | 956.8 hPa | 0 mm | - | 869 W/m² | - |
| 1778181787 | 17.78° C | 25% | 956.9 hPa | 0 mm | - | 874 W/m² | - |
| 1778181484 | 17.78° C | 27% | 956.9 hPa | 0 mm | - | 879 W/m² | - |
| 1778181184 | 17.78° C | 27% | 956.9 hPa | 0 mm | - | 885 W/m² | - |
| 1778180884 | 17.78° C | 28% | 957 hPa | 0 mm | - | 883 W/m² | - |
| 1778180584 | 17.22° C | 30% | 956.9 hPa | 0 mm | - | 892 W/m² | - |
| 1778180372 | 17.22° C | 28% | 956.9 hPa | 0 mm | - | 893 W/m² | - |
| 1778179984 | 17.22° C | 29% | 956.9 hPa | 0 mm | - | 900 W/m² | - |
| 1778179684 | 17.22° C | 28% | 957 hPa | 0 mm | - | 897 W/m² | - |
| 1778179384 | 17.22° C | 28% | 957 hPa | 0 mm | - | 903 W/m² | - |
| 1778179084 | 17.22° C | 28% | 957 hPa | 0 mm | - | 907 W/m² | - |
| 1778178784 | 17.22° C | 29% | 957 hPa | 0 mm | - | 906 W/m² | - |
| 1778178573 | 16.67° C | 28% | 957 hPa | 0 mm | - | 903 W/m² | - |
| 1778178184 | 16.67° C | 30% | 957.1 hPa | 0 mm | - | 904 W/m² | - |
| 1778177885 | 16.67° C | 27% | 957.1 hPa | 0 mm | - | 911 W/m² | - |
| 1778177674 | 16.11° C | 30% | 957.1 hPa | 0 mm | - | 906 W/m² | - |
| 1778177285 | 16.67° C | 30% | 957.2 hPa | 0 mm | - | 905 W/m² | - |
| 1778176984 | 16.11° C | 30% | 957.2 hPa | 0 mm | - | 909 W/m² | - |
| 1778176682 | 16.11° C | 30% | 957.3 hPa | 0 mm | - | 903 W/m² | - |
| 1778176382 | 16.11° C | 32% | 957.3 hPa | 0 mm | - | 901 W/m² | - |
* Rain latest hour (hover to see other rain measurements)
** Current wind speed in m/s (hover to see current wind gust speed)